015  
ASUS46 KOTX 271205  
RWROTX  
 
EASTERN WASHINGTON/NORTHERN IDAHO ROUNDUP  
NATIONAL WEATHER SERVICE, SPOKANE WA  
400 AM PST THU FEB 27 2020  
 
NOTE: "FAIR" INDICATED FEW OR NO CLOUDS BELOW 12,000 FEET WITH NO  
SIGNIFICANT WEATHER AND/OR S TO VISIBILITY
.  
   
..NORTHEAST WASHINGTON AND NORTHERN IDAHO PANHANDLE
 
 
 
CITY SKY/WX TMP DP RH WIND PRES REMARKS
 
SPOKANE INTL MOCLDY 33 27 78 SE7 30.36S WCI 27  
SPOKANE DOWNTO PTCLDY 32 28 85 N3 30.38S  
COEUR D ALENE PTCLDY 29 27 92 CALM 30.37S  
DEER PARK PTCLDY 25 22 88 CALM 30.37S  
SANDPOINT CLOUDY 28 28 100 CALM 30.38S  
BONNERS FERRY FAIR 27 27 100 CALM 30.37R  
   
..SOUTHEAST WASHINGTON AND SOUTHERN IDAHO PANHANDLE
 
 
 
CITY SKY/WX TMP DP RH WIND PRES REMARKS
 
WALLA WALLA CLEAR 38 29 70 SE8 30.39F  
PULLMAN/MOSCOW PTCLDY 33 29 85 NE6 30.39F WCI 28  
LEWISTON PTCLDY 33 29 85 CALM 30.43S  
LOWELL N/A 36 33 89 N3 30.48S  
GRANGEVILLE FAIR 27 27 100 SE6 30.38S WCI 20  
   
..COLUMBIA BASIN
 
 
 
CITY SKY/WX TMP DP RH WIND PRES REMARKS
 
EPHRATA MOCLDY 33 29 85 NE5 30.37F WCI 29  
MOSES LAKE MOCLDY 36 29 75 SE3 30.38F  
PASCO CLEAR 27 24 89 NW8 30.43R WCI 19  
RICHLAND SUNNY 30 29 96 CALM 30.42S  
HERMISTON CLEAR 30 26 85 S5 30.41F WCI 25  
PENDLETON CLEAR 33 28 81 SE9 30.39F WCI 25  
   
..EAST SLOPES CASCADES
 
 
 
CITY SKY/WX TMP DP RH WIND PRES REMARKS
 
THE DALLES CLEAR 34 28 79 S5 30.45R WCI 30  
YAKIMA CLEAR 30 24 78 W3 30.41S  
ELLENSBURG CLEAR 36 27 69 S6 30.38F  
WENATCHEE MOCLDY 39 27 62 W7 30.38S  
OMAK MOCLDY 31 25 78 N6 30.38R WCI 25  
SUNNYSIDE SUNNY 28 26 92 CALM 30.42S  
   
..SOUTHERN BRITISH COLUMBIA
 
 
 
CITY SKY/WX TMP DP RH WIND PRES REMARKS
 
   
..WESTERN MONTANA
 
 
 
CITY SKY/WX TMP DP RH WIND PRES REMARKS
 
KALISPELL CLOUDY 24 21 88 CALM 30.34R  
LIBBY N/A 21 19 93 CALM 30.35R  
MISSOULA MOCLDY 32 23 69 CALM 30.36R  
   
..NEIGHBORING CITIES
 
 
 
CITY SKY/WX TMP DP RH WIND PRES REMARKS
 
SEATTLE PTCLDY 41 36 82 SE9 30.47S  
PORTLAND PTCLDY 35 32 88 CALM 30.49F  
BOISE CLEAR 29 22 75 CALM 30.42R  
GREAT FALLS PTCLDY 31 18 58 SW15 30.18F WCI 20  
 
CLICK HERE TO GO TO PREVIOUS BULLETINS.

The Nexlab WA Page
The Nexlab ID Page Main Text Page